Location: Pagani
(40.7500°N, 14.6167°E)
Time: 05:36:05
(UTC+00:00)

Cosmos 1461 - Pass Details

Date: 15 May 2026
Orbit: 422 x 476 km, 65.0° (Epoch: 6 June)

Event Time Altitude Azimuth Distance (km) Brightness Sun altitude
Rises 19:42:52 0° 219° (SW) 2,530 6.2 -15.0°
Reaches altitude 10° 19:45:01 10° 222° (SW) 1,655 5.3 -15.3°
Maximum altitude 19:48:41 61° 304° (NW) 549 3.1 -15.8°
Drops below altitude 10° 19:52:21 10° 25° (NNE) 1,656 5.5 -16.3°
Sets 19:54:30 0° 29° (NNE) 2,533 6.4 -16.6°
